Weather History for KPLN - February, 2014

Change the Weather History Date:

Tuesday, February 11, 2014

  Actual Average Record
Temperature  
Mean Temperature -8 °F -  
Max Temperature 10 °F 25 °F 53 °F (1999)
Min Temperature -25 °F 5 °F -26 °F (1958)
Degree Days  
Heating Degree Days 72    
Moisture  
Dew Point -15 °F    
Average Humidity 73    
Maximum Humidity 91    
Minimum Humidity 56    
Precipitation  
Precipitation 0.00 in - - ()
Sea Level Pressure  
Sea Level Pressure 30.47 in    
Wind  
Wind Speed 1 mph (SSW)    
Max Wind Speed 8 mph    
Max Gust Speed -    
Visibility 10 miles    
Events      
Averages and records for this station are not official NWS values.
T = Trace of Precipitation, MM = Missing Value Source: NWS Daily Summary

Daily Weather History Graph

Daily Weather History Graph

Search for Another Location

Airport or City:

Trip Planner

Search our weather history database for the weather conditions in past years. The results will help you decide how hot, cold, wet, or windy it might be!

Date:

Astronomy

Feb. 11, 2014 Rise Set
Actual Time 7:47 AM EST 6:00 PM EST
Civil Twilight 7:16 AM EST 6:31 PM EST
Nautical Twilight 6:41 AM EST 7:06 PM EST
Astronomical Twilight 6:07 AM EST 7:40 PM EST
Moon 3:16 PM EST (2/11) 5:27 AM EST (2/11)
Length of Visible Light 11h 14m
Length of Day
10h 13m
Waxing Gibbous, 90% of the Moon is Illuminated
Feb 11
Waxing Gibbous
Feb 14
Full
Feb 22
Last Quarter
Mar 1
New
Mar 8
First Quarter

Hourly Weather History & Observations

Time (EST) Temp. Windchill Dew Point Humidity Pressure Visibility Wind Dir Wind Speed Gust Speed Precip Events Conditions
12:54 AM -16.1 °F - -20.0 °F 82% 30.46 in 10.0 mi Calm Calm - N/A   Clear
1:29 AM -17.0 °F - -22.0 °F 78% 30.39 in 10.0 mi Calm Calm - N/A   Mostly Cloudy
1:54 AM -17.0 °F - -20.9 °F 82% 30.46 in 10.0 mi Calm Calm - N/A   Scattered Clouds
2:54 AM -18.0 °F - -23.1 °F 78% 30.47 in 10.0 mi Calm Calm - N/A   Clear
3:54 AM -20.9 °F - -27.0 °F 73% 30.48 in 10.0 mi Calm Calm - N/A   Clear
4:54 AM -20.9 °F - -26.0 °F 77% 30.49 in 10.0 mi Calm Calm - N/A   Clear
5:54 AM -23.1 °F - -29.0 °F 74% 30.50 in 10.0 mi Calm Calm - N/A   Clear
6:54 AM -25.1 °F - -31.0 °F 74% 30.51 in 10.0 mi Calm Calm - N/A   Clear
7:54 AM -25.1 °F - -31.0 °F 74% 30.53 in 10.0 mi Calm Calm - N/A   Clear
8:54 AM -20.0 °F - -22.0 °F 91% 30.53 in 10.0 mi Calm Calm - N/A   Clear
9:54 AM -9.0 °F - -14.1 °F 79% 30.53 in 5.0 mi Calm Calm - N/A   Haze
10:54 AM -2.0 °F - -8.0 °F 76% 30.53 in 10.0 mi Calm Calm - N/A   Clear
11:54 AM 5.0 °F -2.1 °F -5.1 °F 63% 30.53 in 10.0 mi NNE 3.5 mph - N/A   Clear
12:54 PM 9.0 °F 2.4 °F -4.0 °F 56% 30.51 in 10.0 mi Variable 3.5 mph - N/A   Clear
1:54 PM 10.0 °F -1.9 °F -2.0 °F 58% 30.48 in 10.0 mi SW 8.1 mph - N/A   Clear
2:54 PM 10.9 °F -0.8 °F -2.0 °F 56% 30.48 in 10.0 mi SW 8.1 mph - N/A   Clear
3:54 PM 10.9 °F 0.2 °F -0.9 °F 59% 30.48 in 10.0 mi SW 6.9 mph - N/A   Clear
4:54 PM 10.9 °F 1.4 °F -0.9 °F 59% 30.46 in 10.0 mi South 5.8 mph - N/A   Clear
5:54 PM 9.0 °F 2.4 °F -2.9 °F 59% 30.45 in 10.0 mi SSW 3.5 mph - N/A   Clear
6:54 PM -0.9 °F - -8.0 °F 72% 30.45 in 10.0 mi Calm Calm - N/A   Clear
7:54 PM -6.0 °F - -9.9 °F 83% 30.46 in 10.0 mi Calm Calm - N/A   Clear
8:54 PM -9.9 °F - -14.1 °F 82% 30.43 in 10.0 mi Calm Calm - N/A   Clear
9:54 PM -11.0 °F - -15.0 °F 83% 30.42 in 10.0 mi Calm Calm - N/A   Clear
10:54 PM -13.0 °F - -18.0 °F 78% 30.39 in 10.0 mi Calm Calm - N/A   Clear
11:54 PM -15.0 °F -25.0 °F -20.0 °F 78% 30.37 in 10.0 mi SE 3.5 mph - N/A   Clear